Regional Weather Roundup
Issued by NWS Sterling, VA

Home | Current Version | Previous Version | Graphics & Text | Print | Product List | Glossary On
Versions: 1 2 3 4 5 6 7 8 9 10 11 12 13 14 15 16 17 18 19 20 21 22 23 24 25 26 27 28 29 30 31 32 33 34 35 36 37 38 39 40 41 42 43 44 45 46 47 48 49 50
000
ASUS41 KLWX 122110
RWRLWX

REGIONAL WEATHER ROUNDUP
NATIONAL WEATHER SERVICE BALTIMORE MD/WASHINGTON DC
500 PM EDT SAT JUL 12 2014

Note: "FAIR" indicates few or no clouds below 12,000 feet
with no significant weather and/or obstructions to visibility.
 TC=TEMPERATURE CELSIUS

 * =Non NWS site. Station does not report precipitation (e.g. rain,
    snow, etc.), thunder, or fog.

DCZ001-MDZ009-015-VAZ040>042-051-053>054-122200-
WASHINGTON METRO

CITY           SKY/WX    TMP DP  RH WIND       PRES   REMARKS
WASHINGTON NAT MOSUNNY   88  67  49 S14       30.14F HX  91
DULLES         PTSUNNY   85  70  60 S10       30.13F
QUANTICO       SUNNY     87  71  58 S12       30.14F HX  93
LEESBURG*      CLOUDY    88  72  58 SW9       30.14F HX  94
GAITHERSBURG*  PTSUNNY   84  68  58 S8        30.18S

$$

MDZ006>007-011-014-122200-
BALTIMORE METRO

CITY           SKY/WX    TMP DP  RH WIND       PRES   REMARKS
BWI AIRPORT    MOSUNNY   86  67  52 SE12      30.13F
MD SCIENCE CTR   N/A     88  66  48 MISG      30.14F HX  90
MARTIN STATE   MOSUNNY   88  68  51 SE15      30.17F HX  91
ANNAPOLIS      SUNNY     85  62  46 S12       30.15F
FORT MEADE*    SUNNY     84  68  58 SE8       30.16S

$$

MDZ012-015-019>023-122200-
MARYLAND EASTERN SHORE

CITY           SKY/WX    TMP DP  RH WIND       PRES   REMARKS
OCEAN CITY     SUNNY     77  70  79 VRB6      30.21F
SALISBURY      CLOUDY    86  68  54 SE13      30.19F
BAY BRIDGE AP*   N/A     86  59  39 S9        30.15F
EASTON*        SUNNY     88  66  48 SW10      30.20F HX  90

$$

MDZ017>025-122200-
SOUTHERN MARYLAND

CITY           SKY/WX    TMP DP  RH WIND       PRES   REMARKS
PATUXENT RIVER MOSUNNY   81  70  69 SE14G21   30.16F
ST INIGOES     SUNNY     83  67  58 SE10      30.16F
LEONARDTOWN*   SUNNY     82  63  51 SE7       30.18F

$$

MDZ003>005-122200-
NORTH CENTRAL MARYLAND

CITY           SKY/WX    TMP DP  RH WIND       PRES   REMARKS
FREDERICK*     MOSUNNY   81  75  83 S3        30.15F
HAGERSTOWN APT MOSUNNY   83  69  62 S7        30.13F
WESTMINSTER*   MOSUNNY   90  68  48 S10       30.15F HX  93

$$

MDZ501>502-122200-
WESTERN MARYLAND

CITY           SKY/WX    TMP DP  RH WIND       PRES   REMARKS
OAKLAND*       NOT AVBL
CUMBERLAND*    MOSUNNY   95  52  23 W7        30.15F HX  92

$$

VAZ025>031-122200-
SHENANDOAH VALLEY

CITY           SKY/WX    TMP DP  RH WIND       PRES   REMARKS
WINCHESTER*    CLOUDY    82  66  57 E10       30.14S
STAUNTON*      MOSUNNY   85  64  49 S12G17    30.18F

$$

WVZ021-048>050-054>055-122200-
EASTERN WEST VIRGINIA PANHANDLE

CITY           SKY/WX    TMP DP  RH WIND       PRES   REMARKS
MARTINSBURG    MOSUNNY   86  68  54 S7        30.13F
PETERSBURG*    MOSUNNY   88  52  28 SE6       30.13F

$$

VAZ036>039-050-122200-
CENTRAL FOOTHILLS

CITY           SKY/WX    TMP DP  RH WIND       PRES   REMARKS
CHARLOTTESVILL PTSUNNY   88  67  49 S8        30.14F HX  91
ORANGE*        MOSUNNY   88  66  48 SE9       30.15F HX  90

$$

VAZ055>057-122200-
NORTH AND CENTRAL PIEDMONT

CITY           SKY/WX    TMP DP  RH WIND       PRES   REMARKS
FREDERICKSBRG* MOSUNNY   91  67  45 S9        30.13F HX  93
STAFFORD*      PTSUNNY   87  70  56 S6        30.17F HX  91

$$

NCZ024-NYZ072-PAZ021-071-VAZ022-071-122200-
OTHER REGIONAL OBSERVATIONS

CITY           SKY/WX    TMP DP  RH WIND       PRES   REMARKS
NEW YORK CITY  SUNNY     80  58  46 MISG      30.20S
PHILADELPHIA   MOSUNNY   88  57  34 S14       30.16S
PITTSBURGH     CLOUDY    84  60  44 W6        30.14F
ROANOKE        MOSUNNY   87  64  46 S15       30.18F
RICHMOND       PTSUNNY   91  64  40 SE13      30.16F HX  92
RALEIGH        MOSUNNY   88  66  48 S7        30.18F HX  90

$$

ANZ530>537-122200-
MARINE OBSERVATIONS

STATION/POSITION TIME  TEMP    WIND        PRES
                       AIR SEA DIR/SP/G
                 (UTC) (F)     (DEG/KT/KT) (MB)
THOMAS PT LIGHT  2100   81 80  160/ 17/ 18 1021.2F
BALT KEY BRIDGE  2100   84     140/ 15/ 16 1020.3S
COVE POINT       2100   78     180/ 17/ 18 1021.6F
LEWISETTA        2100   82 83  140/ 11/ 14 1021.2F
SOLOMONS ISLAND  2100      82                N/A
PINEY POINT      2100          150/ 18/ 19   N/A

$$




USA.gov is the U.S. government's official web portal to all federal, state and local government web resources and services.